| time (UTC) | temp C | wind direction | speed KPH | gust KPH | rain 1hr cm | rain 24hr cm | rain mn cm | humidity % | barometer mb |
| 20260505083659 | 17 | 180 | 1.6 | 4.8 | 0.00 | 0.00 | 0.00 | 52 | 1005.4 |
| 20260505083155 | 17 | 244 | 6.4 | 6.4 | 0.00 | 0.00 | 0.00 | 52 | 1005.3 |
| 20260505082651 | 17 | 200 | 1.6 | 8.0 | 0.00 | 0.00 | 0.00 | 51 | 1005.2 |
| 20260505082148 | 17 | 241 | 3.2 | 4.8 | 0.00 | 0.00 | 0.00 | 53 | 1005.3 |
| 20260505081644 | 17 | 201 | 3.2 | 4.8 | 0.00 | 0.00 | 0.00 | 54 | 1005.4 |
| 20260505081142 | 17 | 213 | 3.2 | 4.8 | 0.00 | 0.00 | 0.00 | 56 | 1005.4 |
| 20260505080639 | 17 | 208 | 3.2 | 3.2 | 0.00 | 0.00 | 0.00 | 56 | 1005.6 |
| 20260505080135 | 17 | 257 | 3.2 | 4.8 | 0.00 | 0.00 | 0.00 | 55 | 1005.6 |
| 20260505075631 | 17 | 208 | 3.2 | 3.2 | 0.00 | 0.00 | 0.00 | 55 | 1005.5 |
| 20260505075128 | 17 | 219 | 4.8 | 4.8 | 0.00 | 0.00 | 0.00 | 57 | 1005.7 |
| 20260505074625 | 17 | 235 | 6.4 | 6.4 | 0.00 | 0.00 | 0.00 | 56 | 1005.6 |
| 20260505074122 | 16 | 230 | 4.8 | 4.8 | 0.00 | 0.00 | 0.00 | 58 | 1005.6 |
| 20260505073620 | 16 | 213 | 3.2 | 4.8 | 0.00 | 0.00 | 0.00 | 58 | 1005.6 |
| 20260505073118 | 16 | 253 | 4.8 | 4.8 | 0.00 | 0.00 | 0.00 | 59 | 1005.7 |
| 20260505072613 | 16 | 243 | 4.8 | 4.8 | 0.00 | 0.00 | 0.00 | 58 | 1005.5 |
| 20260505072110 | 16 | 245 | 3.2 | 4.8 | 0.00 | 0.00 | 0.00 | 58 | 1005.6 |
| 20260505071605 | 16 | 217 | 3.2 | 4.8 | 0.00 | 0.00 | 0.00 | 56 | 1006.0 |
| 20260505071103 | 17 | 215 | 1.6 | 3.2 | 0.00 | 0.00 | 0.00 | 55 | 1005.7 |
| 20260505070600 | 17 | 248 | 3.2 | 6.4 | 0.00 | 0.00 | 0.00 | 53 | 1005.9 |
| 20260505070056 | 17 | 225 | 3.2 | 6.4 | 0.00 | 0.00 | 0.00 | 50 | 1005.9 |
| 20260505065552 | 17 | 208 | 3.2 | 6.4 | 0.00 | 0.00 | 0.00 | 51 | 1005.7 |
| 20260505065049 | 17 | 236 | 3.2 | 4.8 | 0.00 | 0.00 | 0.00 | 52 | 1005.7 |
| 20260505064546 | 17 | 231 | 3.2 | 3.2 | 0.00 | 0.00 | 0.00 | 52 | 1005.6 |
| 20260505064045 | 17 | 220 | 3.2 | 3.2 | 0.00 | 0.00 | 0.00 | 51 | 1005.3 |
| 20260505063542 | 17 | 255 | 0.0 | 3.2 | 0.00 | 0.00 | 0.00 | 53 | 1005.5 |
| 20260505063037 | 17 | 270 | 0.0 | 0.0 | 0.00 | 0.00 | 0.00 | 58 | 1005.7 |
| 20260505062534 | 17 | 270 | 0.0 | 1.6 | 0.00 | 0.00 | 0.00 | 53 | 1005.6 |
| 20260505062031 | 17 | 246 | 0.0 | 1.6 | 0.00 | 0.00 | 0.00 | 55 | 1005.5 |
| 20260505061529 | 17 | 98 | 0.0 | 1.6 | 0.00 | 0.00 | 0.00 | 54 | 1006.0 |
| 20260505061027 | 17 | 172 | 0.0 | 0.0 | 0.00 | 0.00 | 0.00 | 51 | 1005.6 |
| 20260505060524 | 18 | 172 | 0.0 | 3.2 | 0.00 | 0.00 | 0.00 | 51 | 1005.6 |
| 20260505060020 | 17 | 209 | 1.6 | 3.2 | 0.00 | 0.00 | 0.00 | 51 | 1005.9 |
| 20260505055516 | 17 | 243 | 0.0 | 1.6 | 0.00 | 0.00 | 0.00 | 52 | 1005.7 |
| 20260505055013 | 17 | 145 | 0.0 | 0.0 | 0.00 | 0.00 | 0.00 | 53 | 1005.6 |
| 20260505054510 | 18 | 145 | 0.0 | 1.6 | 0.00 | 0.00 | 0.00 | 53 | 1005.7 |
| 20260505054008 | 18 | 154 | 0.0 | 0.0 | 0.00 | 0.00 | 0.00 | 53 | 1006.2 |
| 20260505053505 | 18 | 154 | 0.0 | 0.0 | 0.00 | 0.00 | 0.00 | 52 | 1006.0 |
| 20260505053001 | 18 | 228 | 0.0 | 3.2 | 0.00 | 0.00 | 0.00 | 49 | 1006.3 |
| 20260505052459 | 19 | 15 | 0.0 | 1.6 | 0.00 | 0.00 | 0.00 | 47 | 1006.3 |
| 20260505051956 | 18 | 299 | 3.2 | 4.8 | 0.00 | 0.00 | 0.00 | 47 | 1006.3 |
| 20260505051452 | 18 | 0 | 0.0 | 0.0 | 0.00 | 0.00 | 0.00 | 48 | 1006.2 |
| 20260505050951 | 18 | 12 | 1.6 | 3.2 | 0.00 | 0.00 | 0.00 | 48 | 1006.4 |
| 20260505050449 | 18 | 23 | 0.0 | 3.2 | 0.00 | 0.00 | 0.00 | 49 | 1006.3 |
| 20260505041416 | 23 | 287 | 3.2 | 4.8 | 0.00 | 0.00 | 0.00 | 31 | 1006.3 |
| 20260505040913 | 22 | 308 | 8.0 | 8.0 | 0.00 | 0.00 | 0.00 | 32 | 1006.3 |
| 20260505040411 | 22 | 278 | 4.8 | 8.0 | 0.00 | 0.00 | 0.00 | 34 | 1006.3 |
| 20260505035907 | 21 | 276 | 3.2 | 4.8 | 0.00 | 0.00 | 0.00 | 35 | 1006.2 |
| 20260505035403 | 21 | 229 | 3.2 | 8.0 | 0.00 | 0.00 | 0.00 | 35 | 1006.7 |
| 20260505034901 | 21 | 185 | 1.6 | 4.8 | 0.00 | 0.00 | 0.00 | 36 | 1005.9 |
| 20260505034357 | 21 | 194 | 0.0 | 3.2 | 0.00 | 0.00 | 0.00 | 36 | 1006.0 |
| 20260505033855 | 22 | 253 | 3.2 | 4.8 | 0.00 | 0.00 | 0.00 | 34 | 1005.7 |
| 20260505033351 | 22 | 275 | 3.2 | 4.8 | 0.00 | 0.00 | 0.00 | 33 | 1005.6 |
| 20260505032849 | 23 | 270 | 0.0 | 4.8 | 0.00 | 0.00 | 0.00 | 31 | 1006.0 |
| 20260505032346 | 23 | 270 | 3.2 | 8.0 | 0.00 | 0.00 | 0.00 | 30 | 1005.5 |
| 20260505031842 | 23 | 270 | 0.0 | 9.7 | 0.00 | 0.00 | 0.00 | 28 | 1005.3 |
| 20260505031339 | 24 | 294 | 4.8 | 12.9 | 0.00 | 0.00 | 0.00 | 27 | 1005.2 |
| 20260505030837 | 24 | 263 | 4.8 | 11.3 | 0.00 | 0.00 | 0.00 | 27 | 1005.2 |
| 20260505030332 | 24 | 264 | 8.0 | 9.7 | 0.00 | 0.00 | 0.00 | 27 | 1004.9 |
| 20260505025828 | 24 | 233 | 4.8 | 9.7 | 0.00 | 0.00 | 0.00 | 27 | 1005.2 |
| 20260505025326 | 24 | 275 | 3.2 | 11.3 | 0.00 | 0.00 | 0.00 | 27 | 1005.1 |
| 20260505024824 | 24 | 287 | 3.2 | 6.4 | 0.00 | 0.00 | 0.00 | 29 | 1005.3 |
| 20260505024322 | 25 | 270 | 0.0 | 4.8 | 0.00 | 0.00 | 0.00 | 27 | 1004.9 |
| 20260505023818 | 25 | 283 | 4.8 | 6.4 | 0.00 | 0.00 | 0.00 | 25 | 1004.9 |
| 20260505023315 | 26 | 254 | 0.0 | 6.4 | 0.00 | 0.00 | 0.00 | 24 | 1004.5 |
| 20260505022813 | 26 | 285 | 1.6 | 8.0 | 0.00 | 0.00 | 0.00 | 23 | 1004.4 |
| 20260505022310 | 26 | 221 | 3.2 | 4.8 | 0.00 | 0.00 | 0.00 | 23 | 1004.7 |
| 20260505021807 | 26 | 236 | 3.2 | 4.8 | 0.00 | 0.00 | 0.00 | 22 | 1004.9 |
| 20260505021303 | 26 | 241 | 4.8 | 9.7 | 0.00 | 0.00 | 0.00 | 23 | 1005.1 |
| 20260505020759 | 26 | 239 | 9.7 | 12.9 | 0.00 | 0.00 | 0.00 | 22 | 1004.8 |
| 20260505020254 | 26 | 225 | 6.4 | 8.0 | 0.00 | 0.00 | 0.00 | 23 | 1005.1 |
| 20260505015752 | 26 | 312 | 3.2 | 11.3 | 0.00 | 0.00 | 0.00 | 23 | 1005.1 |
| 20260505015249 | 26 | 270 | 4.8 | 11.3 | 0.00 | 0.00 | 0.00 | 23 | 1005.1 |
| 20260505014746 | 25 | 344 | 4.8 | 9.7 | 0.00 | 0.00 | 0.00 | 24 | 1005.1 |
| 20260505014243 | 26 | 281 | 3.2 | 8.0 | 0.00 | 0.00 | 0.00 | 24 | 1004.8 |
| 20260505013739 | 26 | 292 | 3.2 | 9.7 | 0.00 | 0.00 | 0.00 | 24 | 1004.9 |
| 20260505013237 | 26 | 281 | 4.8 | 8.0 | 0.00 | 0.00 | 0.00 | 24 | 1004.8 |
| 20260505012735 | 26 | 285 | 0.0 | 6.4 | 0.00 | 0.00 | 0.00 | 25 | 1004.9 |
| 20260505012232 | 26 | 270 | 3.2 | 4.8 | 0.00 | 0.00 | 0.00 | 25 | 1004.9 |
| 20260505011728 | 26 | 270 | 0.0 | 3.2 | 0.00 | 0.00 | 0.00 | 25 | 1004.9 |
| 20260505011225 | 26 | 250 | 4.8 | 6.4 | 0.00 | 0.00 | 0.00 | 24 | 1005.0 |
| 20260505010721 | 26 | 257 | 0.0 | 4.8 | 0.00 | 0.00 | 0.00 | 24 | 1005.0 |
| 20260505010217 | 26 | 0 | 0.0 | 6.4 | 0.00 | 0.00 | 0.00 | 24 | 1004.8 |
| 20260505005714 | 26 | 251 | 0.0 | 6.4 | 0.00 | 0.00 | 0.00 | 23 | 1004.8 |
| 20260505005211 | 27 | 270 | 1.6 | 4.8 | 0.00 | 0.00 | 0.00 | 22 | 1004.8 |
| 20260505004708 | 27 | 291 | 1.6 | 8.0 | 0.00 | 0.00 | 0.00 | 21 | 1004.8 |
| 20260505004204 | 27 | 283 | 1.6 | 8.0 | 0.00 | 0.00 | 0.00 | 20 | 1004.8 |
| 20260505003702 | 27 | 291 | 1.6 | 14.5 | 0.00 | 0.00 | 0.00 | 19 | 1004.9 |
| 20260505003159 | 27 | 264 | 3.2 | 11.3 | 0.00 | 0.00 | 0.00 | 20 | 1005.0 |
| 20260505002655 | 27 | 264 | 4.8 | 12.9 | 0.00 | 0.00 | 0.00 | 19 | 1005.2 |
| 20260505002153 | 27 | 299 | 6.4 | 11.3 | 0.00 | 0.00 | 0.00 | 19 | 1004.9 |
| 20260505001650 | 27 | 301 | 9.7 | 16.1 | 0.00 | 0.00 | 0.00 | 19 | 1005.1 |
| 20260505001148 | 28 | 270 | 11.3 | 14.5 | 0.00 | 0.00 | 0.00 | 19 | 1005.2 |
| 20260505000644 | 28 | 253 | 8.0 | 12.9 | 0.00 | 0.00 | 0.00 | 19 | 1005.1 |
| 20260505000143 | 28 | 259 | 8.0 | 19.3 | 0.00 | 0.00 | 0.00 | 18 | 1005.1 |
| 20260504235638 | 28 | 247 | 9.7 | 14.5 | 0.00 | 0.00 | 0.00 | 18 | 1005.2 |
| 20260504235135 | 28 | 293 | 14.5 | 25.7 | 0.00 | 0.00 | 0.00 | 19 | 1005.0 |
| 20260504234632 | 28 | 255 | 11.3 | 27.4 | 0.00 | 0.00 | 0.00 | 18 | 1005.1 |
| 20260504234130 | 28 | 250 | 14.5 | 30.6 | 0.00 | 0.00 | 0.00 | 19 | 1005.0 |
| 20260504233625 | 28 | 257 | 20.9 | 25.7 | 0.00 | 0.00 | 0.00 | 19 | 1005.1 |
| 20260504233121 | 28 | 241 | 16.1 | 35.4 | 0.00 | 0.00 | 0.00 | 18 | 1005.0 |
| 20260504232619 | 28 | 308 | 14.5 | 20.9 | 0.00 | 0.00 | 0.00 | 18 | 1005.2 |
| 20260504232116 | 28 | 309 | 17.7 | 27.4 | 0.00 | 0.00 | 0.00 | 18 | 1004.9 |
| 20260504231613 | 28 | 253 | 22.5 | 29.0 | 0.00 | 0.00 | 0.00 | 18 | 1004.9 |
| 20260504231109 | 28 | 256 | 8.0 | 24.1 | 0.00 | 0.00 | 0.00 | 19 | 1005.2 |
| 20260504230605 | 29 | 294 | 12.9 | 22.5 | 0.00 | 0.00 | 0.00 | 18 | 1004.8 |
| 20260504230104 | 28 | 282 | 19.3 | 29.0 | 0.00 | 0.00 | 0.00 | 18 | 1005.1 |
| 20260504225601 | 29 | 251 | 12.9 | 30.6 | 0.00 | 0.00 | 0.00 | 17 | 1004.8 |
| 20260504225058 | 29 | 228 | 16.1 | 30.6 | 0.00 | 0.00 | 0.00 | 17 | 1005.3 |
| 20260504224555 | 28 | 257 | 12.9 | 22.5 | 0.00 | 0.00 | 0.00 | 18 | 1004.9 |
| 20260504224052 | 28 | 255 | 17.7 | 27.4 | 0.00 | 0.00 | 0.00 | 17 | 1005.1 |
| 20260504223549 | 28 | 273 | 6.4 | 27.4 | 0.00 | 0.00 | 0.00 | 16 | 1005.2 |
| 20260504223044 | 28 | 267 | 6.4 | 22.5 | 0.00 | 0.00 | 0.00 | 17 | 1005.1 |
| 20260504222542 | 28 | 247 | 6.4 | 29.0 | 0.00 | 0.00 | 0.00 | 17 | 1005.4 |
| 20260504222039 | 28 | 239 | 14.5 | 22.5 | 0.00 | 0.00 | 0.00 | 16 | 1005.0 |
| 20260504221536 | 28 | 266 | 11.3 | 40.2 | 0.00 | 0.00 | 0.00 | 16 | 1005.1 |
| 20260504221032 | 28 | 282 | 12.9 | 25.7 | 0.00 | 0.00 | 0.00 | 17 | 1005.2 |
| 20260504220529 | 28 | 239 | 22.5 | 37.0 | 0.00 | 0.00 | 0.00 | 17 | 1005.3 |
| 20260504220026 | 28 | 231 | 25.7 | 43.5 | 0.00 | 0.00 | 0.00 | 17 | 1005.3 |
| 20260504215523 | 28 | 248 | 9.7 | 33.8 | 0.00 | 0.00 | 0.00 | 17 | 1005.2 |
| 20260504215020 | 29 | 262 | 12.9 | 32.2 | 0.00 | 0.00 | 0.00 | 17 | 1005.4 |
| 20260504214516 | 29 | 230 | 19.3 | 24.1 | 0.00 | 0.00 | 0.00 | 16 | 1005.4 |
| 20260504214012 | 30 | 320 | 8.0 | 40.2 | 0.00 | 0.00 | 0.00 | 16 | 1005.3 |
| 20260504213509 | 30 | 247 | 25.7 | 33.8 | 0.00 | 0.00 | 0.00 | 16 | 1005.3 |
| 20260504213007 | 30 | 275 | 12.9 | 29.0 | 0.00 | 0.00 | 0.00 | 16 | 1005.5 |
| 20260504212502 | 30 | 247 | 8.0 | 17.7 | 0.00 | 0.00 | 0.00 | 16 | 1005.1 |
| 20260504212000 | 30 | 242 | 11.3 | 16.1 | 0.00 | 0.00 | 0.00 | 16 | 1005.4 |
| 20260504211456 | 30 | 289 | 3.2 | 17.7 | 0.00 | 0.00 | 0.00 | 16 | 1005.4 |
| 20260504210954 | 30 | 227 | 8.0 | 11.3 | 0.00 | 0.00 | 0.00 | 17 | 1005.5 |
| 20260504210450 | 30 | 278 | 9.7 | 16.1 | 0.00 | 0.00 | 0.00 | 17 | 1005.7 |
| 20260504205947 | 30 | 296 | 8.0 | 20.9 | 0.00 | 0.00 | 0.00 | 16 | 1006.1 |
| 20260504205444 | 30 | 278 | 6.4 | 16.1 | 0.00 | 0.00 | 0.00 | 17 | 1006.0 |
| 20260504204943 | 30 | 214 | 9.7 | 17.7 | 0.00 | 0.00 | 0.00 | 17 | 1006.1 |
| 20260504204441 | 30 | 313 | 9.7 | 16.1 | 0.00 | 0.00 | 0.00 | 17 | 1006.2 |
| 20260504203940 | 30 | 273 | 4.8 | 16.1 | 0.00 | 0.00 | 0.00 | 18 | 1006.4 |
| 20260504203437 | 30 | 310 | 4.8 | 19.3 | 0.00 | 0.00 | 0.00 | 19 | 1006.3 |
| 20260504202933 | 30 | 329 | 4.8 | 9.7 | 0.00 | 0.00 | 0.00 | 19 | 1006.4 |
| 20260504202430 | 29 | 280 | 6.4 | 19.3 | 0.00 | 0.00 | 0.00 | 18 | 1006.6 |
| 20260504201926 | 28 | 232 | 6.4 | 17.7 | 0.00 | 0.00 | 0.00 | 19 | 1006.5 |
| 20260504201424 | 28 | 324 | 4.8 | 12.9 | 0.00 | 0.00 | 0.00 | 19 | 1006.5 |
| 20260504200921 | 28 | 267 | 6.4 | 16.1 | 0.00 | 0.00 | 0.00 | 19 | 1006.8 |
| 20260504200418 | 29 | 275 | 9.7 | 20.9 | 0.00 | 0.00 | 0.00 | 20 | 1006.8 |
| 20260504195915 | 28 | 254 | 6.4 | 25.7 | 0.00 | 0.00 | 0.00 | 20 | 1006.6 |
| 20260504195410 | 28 | 280 | 6.4 | 16.1 | 0.00 | 0.00 | 0.00 | 19 | 1006.8 |
| 20260504194907 | 29 | 308 | 3.2 | 16.1 | 0.00 | 0.00 | 0.00 | 20 | 1007.1 |
| 20260504194403 | 28 | 315 | 4.8 | 11.3 | 0.00 | 0.00 | 0.00 | 19 | 1006.9 |
| 20260504193859 | 29 | 286 | 1.6 | 11.3 | 0.00 | 0.00 | 0.00 | 19 | 1007.1 |
| 20260504193356 | 28 | 248 | 12.9 | 20.9 | 0.00 | 0.00 | 0.00 | 19 | 1007.4 |
| 20260504192855 | 28 | 259 | 3.2 | 14.5 | 0.00 | 0.00 | 0.00 | 20 | 1007.2 |
| 20260504192352 | 28 | 258 | 6.4 | 14.5 | 0.00 | 0.00 | 0.00 | 19 | 1007.1 |
| 20260504191850 | 29 | 228 | 8.0 | 12.9 | 0.00 | 0.00 | 0.00 | 20 | 1007.3 |
| 20260504191348 | 28 | 227 | 8.0 | 12.9 | 0.00 | 0.00 | 0.00 | 19 | 1007.2 |
| 20260504190843 | 28 | 262 | 6.4 | 16.1 | 0.00 | 0.00 | 0.00 | 19 | 1007.5 |
| 20260504190339 | 28 | 247 | 14.5 | 19.3 | 0.00 | 0.00 | 0.00 | 20 | 1007.4 |
| 20260504185836 | 29 | 355 | 3.2 | 16.1 | 0.00 | 0.00 | 0.00 | 20 | 1007.5 |
| 20260504185333 | 28 | 213 | 8.0 | 12.9 | 0.00 | 0.00 | 0.00 | 20 | 1007.8 |
| 20260504184829 | 28 | 261 | 1.6 | 8.0 | 0.00 | 0.00 | 0.00 | 20 | 1007.7 |
| 20260504184325 | 28 | 281 | 4.8 | 11.3 | 0.00 | 0.00 | 0.00 | 20 | 1008.0 |
| 20260504183821 | 28 | 252 | 6.4 | 14.5 | 0.00 | 0.00 | 0.00 | 20 | 1007.8 |
| 20260504183319 | 28 | 303 | 8.0 | 11.3 | 0.00 | 0.00 | 0.00 | 20 | 1007.9 |
| 20260504182816 | 28 | 303 | 4.8 | 11.3 | 0.00 | 0.00 | 0.00 | 21 | 1008.0 |
| 20260504182314 | 28 | 294 | 1.6 | 20.9 | 0.00 | 0.00 | 0.00 | 21 | 1008.0 |
| 20260504181811 | 27 | 254 | 4.8 | 17.7 | 0.00 | 0.00 | 0.00 | 22 | 1007.8 |
| 20260504181308 | 28 | 294 | 3.2 | 16.1 | 0.00 | 0.00 | 0.00 | 23 | 1008.0 |
| 20260504180807 | 28 | 321 | 4.8 | 16.1 | 0.00 | 0.00 | 0.00 | 24 | 1008.2 |
| 20260504180305 | 27 | 244 | 8.0 | 17.7 | 0.00 | 0.00 | 0.00 | 24 | 1008.4 |
| 20260504175803 | 27 | 263 | 4.8 | 25.7 | 0.00 | 0.00 | 0.00 | 25 | 1008.0 |
| 20260504175259 | 27 | 235 | 12.9 | 17.7 | 0.00 | 0.00 | 0.00 | 25 | 1008.5 |
| 20260504174757 | 27 | 251 | 19.3 | 20.9 | 0.00 | 0.00 | 0.00 | 25 | 1008.7 |
| 20260504174255 | 27 | 249 | 6.4 | 20.9 | 0.00 | 0.00 | 0.00 | 27 | 1008.5 |
| 20260504173751 | 27 | 247 | 8.0 | 24.1 | 0.00 | 0.00 | 0.00 | 27 | 1008.8 |
| 20260504173248 | 27 | 238 | 6.4 | 24.1 | 0.00 | 0.00 | 0.00 | 28 | 1008.6 |
| 20260504172745 | 27 | 264 | 11.3 | 17.7 | 0.00 | 0.00 | 0.00 | 28 | 1008.7 |
| 20260504172241 | 26 | 246 | 9.7 | 20.9 | 0.00 | 0.00 | 0.00 | 27 | 1008.8 |
| 20260504171737 | 26 | 225 | 16.1 | 24.1 | 0.00 | 0.00 | 0.00 | 29 | 1009.0 |
| 20260504171235 | 26 | 251 | 9.7 | 12.9 | 0.00 | 0.00 | 0.00 | 29 | 1008.9 |
| 20260504170732 | 26 | 246 | 8.0 | 11.3 | 0.00 | 0.00 | 0.00 | 29 | 1009.0 |
| 20260504170229 | 26 | 225 | 4.8 | 17.7 | 0.00 | 0.00 | 0.00 | 29 | 1009.0 |
| 20260504160147 | 23 | 155 | 4.8 | 8.0 | 0.00 | 0.00 | 0.00 | 50 | 1009.7 |
| 20260504151115 | 20 | 174 | 6.4 | 8.0 | 0.00 | 0.00 | 0.00 | 62 | 1010.2 |
| 20260504150613 | 19 | 174 | 6.4 | 8.0 | 0.00 | 0.00 | 0.00 | 65 | 1010.3 |
| 20260504150109 | 18 | 146 | 3.2 | 9.7 | 0.00 | 0.00 | 0.00 | 66 | 1010.1 |
| 20260504141038 | 16 | 151 | 4.8 | 8.0 | 0.00 | 0.00 | 0.00 | 76 | 1010.6 |
| 20260504140534 | 16 | 166 | 4.8 | 6.4 | 0.00 | 0.00 | 0.00 | 76 | 1010.6 |
| 20260504130459 | 13 | 29 | 0.0 | 3.2 | 0.00 | 0.00 | 0.00 | 86 | 1010.3 |
| 20260504110346 | 13 | 251 | 0.0 | 1.6 | 0.00 | 0.00 | 0.00 | 83 | 1009.1 |
| 20260504100303 | 13 | 81 | 0.0 | 3.2 | 0.00 | 0.00 | 0.00 | 78 | 1009.4 |